QPF
0.01 0.02 0.01 0.01 0.00 0.00 0.01 0.02 0.05 0.06 0.09 0.09 0.07 0.06 0.03 0.02 0.02 0.02 0.03 0.03 0.04 0.04 0.04 0.05 0.04 0.04 0.04 0.05 0.05 0.05 0.05 0.04 0.04 0.05 0.05 0.04 0.04 0.04 0.03 0.02 0.01 0.01 0.01 0.01
0.01 0.00 0.00 0.01 0.01 0.01 0.01 0.02 0.04 0.05 0.07 0.08 0.06 0.04 0.02 0.02 0.03 0.03 0.04 0.04 0.06 0.05 0.05 0.05 0.04 0.05 0.05 0.04 0.03 0.02 0.03 0.03 0.02 0.03 0.04 0.04 0.04 0.04 0.03 0.03 0.02 0.02 0.01 0.01
0.04 0.01 0.02 0.04 0.02 0.01 0.01 0.01 0.02 0.05 0.06 0.05 0.03 0.03 0.03 0.03 0.04 0.05 0.06 0.07 0.08 0.06 0.05 0.05 0.05 0.05 0.04 0.04 0.04 0.04 0.03 0.03 0.03 0.02 0.02 0.03 0.02 0.03 0.03 0.03 0.03 0.02 0.01 0.01
0.06 0.07 0.09 0.06 0.01 0.01 0.01 0.02 0.02 0.03 0.04 0.04 0.04 0.04 0.03 0.03 0.04 0.05 0.08 0.10 0.09 0.08 0.06 0.07 0.07 0.05 0.05 0.05 0.04 0.03 0.03 0.03 0.04 0.03 0.03 0.03 0.03 0.02 0.02 0.03 0.03 0.02 0.02 0.01
0.07 0.10 0.11 0.08 0.02 0.01 0.03 0.04 0.02 0.02 0.02 0.03 0.03 0.03 0.04 0.04 0.04 0.07 0.08 0.09 0.10 0.09 0.08 0.08 0.07 0.06 0.06 0.05 0.03 0.03 0.03 0.03 0.03 0.03 0.03 0.03 0.03 0.02 0.02 0.02 0.02 0.02 0.02 0.02
0.07 0.11 0.15 0.11 0.02 0.01 0.03 0.07 0.03 0.03 0.02 0.02 0.01 0.03 0.05 0.05 0.05 0.08 0.08 0.08 0.11 0.11 0.09 0.07 0.05 0.05 0.05 0.05 0.04 0.03 0.03 0.03 0.03 0.02 0.02 0.02 0.03 0.03 0.03 0.03 0.03 0.02 0.02 0.02
0.07 0.11 0.13 0.05 0.01 0.01 0.06 0.10 0.04 0.03 0.02 0.03 0.05 0.05 0.03 0.04 0.06 0.08 0.07 0.07 0.09 0.10 0.10 0.08 0.05 0.05 0.05 0.05 0.04 0.03 0.02 0.02 0.02 0.02 0.02 0.02 0.02 0.03 0.03 0.03 0.03 0.02 0.02 0.02
0.06 0.09 0.10 0.02 0.01 0.03 0.04 0.03 0.02 0.02 0.02 0.04 0.05 0.03 0.01 0.02 0.06 0.07 0.08 0.08 0.09 0.10 0.09 0.09 0.08 0.07 0.06 0.05 0.04 0.03 0.03 0.02 0.01 0.01 0.01 0.01 0.02 0.02 0.02 0.03 0.03 0.03 0.03 0.02
0.06 0.07 0.03 0.00 0.01 0.01 0.01 0.01 0.00 0.00 0.01 0.02 0.02 0.02 0.02 0.03 0.04 0.07 0.08 0.09 0.11 0.11 0.10 0.09 0.07 0.07 0.06 0.05 0.04 0.03 0.03 0.02 0.02 0.01 0.01 0.01 0.02 0.02 0.02 0.02 0.02 0.02 0.02 0.02
0.01 0.01 0.00 0.00 0.00 0.00 0.00 0.00 0.00 0.00 0.01 0.01 0.01 0.02 0.04 0.03 0.04 0.06 0.08 0.10 0.10 0.09 0.08 0.07 0.06 0.05 0.05 0.04 0.03 0.04 0.03 0.03 0.02 0.02 0.02 0.01 0.01 0.01 0.01 0.01 0.01 0.01 0.01 0.01
0.02 0.01 0.00 0.00 0.00 0.00 0.00 0.00 0.00 0.00 0.01 0.02 0.02 0.02 0.03 0.03 0.04 0.05 0.06 0.06 0.06 0.06 0.06 0.05 0.04 0.04 0.03 0.02 0.02 0.04 0.03 0.02 0.02 0.02 0.02 0.02 0.01 0.00 0.00 0.00 0.00 0.01 0.01 0.01
0.02 0.00 0.00 0.00 0.00 0.00 0.00 0.00 0.00 0.01 0.02 0.02 0.02 0.02 0.02 0.03 0.03 0.03 0.03 0.04 0.04 0.04 0.04 0.03 0.03 0.03 0.02 0.01 0.01 0.02 0.03 0.02 0.01 0.01 0.01 0.01 0.02 0.01 0.00 0.00 0.00 0.00 0.00 0.00
0.00 0.00 0.00 0.00 0.00 0.00 0.00 0.00 0.00 0.01 0.01 0.01 0.01 0.02 0.02 0.02 0.03 0.03 0.03 0.03 0.02 0.02 0.02 0.02 0.01 0.01 0.01 0.00 0.00 0.01 0.02 0.01 0.01 0.01 0.01 0.02 0.02 0.02 0.01 0.01 0.00 0.00 0.00 0.00
0.00 0.00 0.00 0.00 0.00 0.00 0.00 0.00 0.01 0.01 0.01 0.01 0.01 0.02 0.01 0.01 0.02 0.03 0.02 0.01 0.01 0.01 0.01 0.01 0.01 0.00 0.00 0.00 0.00 0.00 0.00 0.00 0.00 0.00 0.00 0.01 0.00 0.01 0.02 0.02 0.02 0.01 0.00 0.00
0.00 0.00 0.00 0.00 0.00 0.00 0.00 0.00 0.00 0.01 0.01 0.01 0.02 0.01 0.01 0.02 0.02 0.02 0.01 0.01 0.01 0.01 0.00 0.00 0.00 0.00 0.00 0.00 0.00 0.00 0.00 0.00 0.00 0.00 0.00 0.00 0.00 0.00 0.01 0.01 0.02 0.01 0.01 0.00
0.00 0.00 0.00 0.00 0.00 0.00 0.00 0.00 0.00 0.00 0.00 0.01 0.01 0.01 0.01 0.01 0.01 0.01 0.01 0.01 0.01 0.00 0.00 0.00 0.00 0.00 0.00 0.00 0.00 0.00 0.00 0.00 0.00 0.00 0.00 0.00 0.00 0.00 0.00 0.00 0.01 0.01 0.01 0.01
0.00 0.00 0.00 0.00 0.00 0.00 0.00 0.00 0.00 0.00 0.00 0.00 0.00 0.00 0.01 0.01 0.01 0.01 0.01 0.00 0.00 0.00 0.00 0.00 0.00 0.00 0.00 0.00 0.00 0.00 0.00 0.00 0.00 0.00 0.00 0.00 0.00 0.00 0.00 0.00 0.00 0.01 0.01 0.00
0.00 0.00 0.00 0.00 0.00 0.00 0.00 0.00 0.00 0.00 0.00 0.00 0.00 0.00 0.00 0.00 0.00 0.00 0.00 0.00 0.00 0.00 0.00 0.00 0.00 0.00 0.00 0.00 0.00 0.00 0.00 0.00 0.00 0.00 0.00 0.00 0.00 0.00 0.00 0.00 0.00 0.00 0.00 0.00
0.00 0.00 0.00 0.00 0.00 0.00 0.00 0.00 0.00 0.00 0.00 0.00 0.00 0.00 0.00 0.00 0.00 0.00 0.00 0.00 0.00 0.00 0.00 0.00 0.00 0.00 0.00 0.00 0.00 0.00 0.00 0.00 0.00 0.00 0.00 0.00 0.00 0.00 0.00 0.00 0.00 0.00 0.00 0.00
0.00 0.00 0.00 0.00 0.00 0.00 0.00 0.00 0.00 0.00 0.00 0.00 0.00 0.00 0.00 0.00 0.00 0.00 0.00 0.00 0.00 0.00 0.00 0.00 0.00 0.00 0.00 0.00 0.00 0.00 0.00 0.00 0.00 0.00 0.00 0.00 0.00 0.00 0.00 0.00 0.00 0.00 0.00 0.00
0.00 0.00 0.00 0.00 0.00 0.00 0.00 0.00 0.00 0.00 0.00 0.00 0.00 0.00 0.00 0.00 0.00 0.00 0.00 0.00 0.00 0.00 0.00 0.00 0.00 0.00 0.00 0.00 0.00 0.00 0.00 0.00 0.00 0.00 0.00 0.00 0.00 0.00 0.00 0.00 0.00 0.00 0.00 0.00
0.00 0.00 0.00 0.00 0.00 0.00 0.00 0.00 0.00 0.00 0.00 0.00 0.00 0.00 0.00 0.00 0.00 0.00 0.00 0.00 0.00 0.00 0.00 0.00 0.00 0.00 0.00 0.00 0.00 0.00 0.00 0.00 0.00 0.00 0.00 0.00 0.00 0.00 0.00 0.00 0.00 0.00 0.00 0.00
0.00 0.00 0.00 0.00 0.00 0.00 0.00 0.00 0.00 0.00 0.00 0.00 0.00 0.00 0.00 0.00 0.00 0.00 0.00 0.00 0.00 0.00 0.00 0.00 0.00 0.00 0.00 0.00 0.00 0.00 0.00 0.00 0.00 0.00 0.00 0.00 0.00 0.00 0.00 0.00 0.00 0.00 0.00 0.00
0.00 0.00 0.00 0.00 0.00 0.00 0.00 0.00 0.00 0.00 0.00 0.00 0.00 0.00 0.00 0.00 0.00 0.00 0.00 0.00 0.00 0.00 0.00 0.00 0.00 0.00 0.00 0.00 0.00 0.00 0.00 0.00 0.00 0.00 0.00 0.00 0.00 0.00 0.00 0.00 0.00 0.00 0.00 0.00
0.00 0.00 0.00 0.00 0.00 0.00 0.00 0.00 0.00 0.00 0.00 0.00 0.00 0.00 0.00 0.00 0.00 0.00 0.00 0.00 0.00 0.00 0.00 0.00 0.00 0.00 0.00 0.00 0.00 0.00 0.00 0.00 0.00 0.00 0.00 0.00 0.00 0.00 0.00 0.00 0.00 0.00 0.00 0.00
0.00 0.00 0.00 0.00 0.00 0.00 0.00 0.00 0.00 0.00 0.00 0.00 0.00 0.00 0.00 0.00 0.00 0.00 0.00 0.00 0.00 0.00 0.00 0.00 0.00 0.00 0.00 0.00 0.00 0.00 0.00 0.00 0.00 0.00 0.00 0.00 0.00 0.00 0.00 0.00 0.00 0.00 0.00 0.00
0.00 0.00 0.00 0.00 0.00 0.00 0.00 0.00 0.00 0.00 0.00 0.00 0.00 0.00 0.00 0.00 0.00 0.00 0.00 0.00 0.00 0.00 0.00 0.00 0.00 0.00 0.00 0.00 0.00 0.00 0.00 0.00 0.00 0.00 0.00 0.00 0.00 0.00 0.00 0.00 0.00 0.00 0.00 0.00
MSLP
1007.87 1007.47 1006.94 1006.37 1005.91 1005.67 1005.76 1006.24 1007.11 1008.33 1009.82 1011.44 1013.07 1014.58 1015.87 1016.89 1017.64 1018.15 1018.49 1018.74 1018.97 1019.24 1019.60 1020.03 1020.51 1021.00 1021.42 1021.74 1021.92 1021.96 1021.87 1021.69 1021.48 1021.28 1021.16 1021.12 1021.19 1021.35 1021.56 1021.78 1021.99 1022.14 1022.22 1022.23
1008.24 1007.87 1007.32 1006.66 1006.05 1005.63 1005.53 1005.83 1006.56 1007.71 1009.19 1010.87 1012.61 1014.26 1015.70 1016.86 1017.72 1018.29 1018.63 1018.84 1018.99 1019.17 1019.43 1019.78 1020.21 1020.67 1021.11 1021.47 1021.71 1021.81 1021.78 1021.65 1021.46 1021.28 1021.16 1021.12 1021.19 1021.36 1021.59 1021.86 1022.13 1022.35 1022.50 1022.59
1008.42 1008.13 1007.60 1006.93 1006.25 1005.72 1005.49 1005.65 1006.27 1007.33 1008.77 1010.45 1012.24 1013.98 1015.52 1016.78 1017.73 1018.35 1018.72 1018.90 1019.01 1019.12 1019.30 1019.59 1019.96 1020.39 1020.83 1021.21 1021.49 1021.64 1021.67 1021.58 1021.43 1021.27 1021.16 1021.13 1021.20 1021.38 1021.64 1021.95 1022.27 1022.56 1022.78 1022.93
1008.38 1008.18 1007.73 1007.10 1006.43 1005.88 1005.59 1005.68 1006.21 1007.18 1008.55 1010.20 1011.98 1013.74 1015.34 1016.67 1017.67 1018.36 1018.76 1018.96 1019.05 1019.13 1019.27 1019.50 1019.84 1020.24 1020.67 1021.06 1021.37 1021.56 1021.62 1021.58 1021.46 1021.33 1021.22 1021.20 1021.28 1021.46 1021.73 1022.07 1022.42 1022.75 1023.03 1023.23
1008.09 1007.98 1007.63 1007.11 1006.53 1006.04 1005.76 1005.83 1006.32 1007.23 1008.53 1010.11 1011.85 1013.58 1015.18 1016.53 1017.58 1018.31 1018.77 1019.00 1019.12 1019.21 1019.34 1019.55 1019.86 1020.25 1020.66 1021.06 1021.38 1021.59 1021.69 1021.67 1021.58 1021.47 1021.37 1021.35 1021.42 1021.60 1021.87 1022.20 1022.57 1022.92 1023.23 1023.46
1007.56 1007.54 1007.31 1006.93 1006.50 1006.12 1005.94 1006.06 1006.55 1007.42 1008.65 1010.16 1011.82 1013.49 1015.05 1016.40 1017.47 1018.24 1018.74 1019.04 1019.20 1019.33 1019.48 1019.70 1020.00 1020.37 1020.78 1021.17 1021.49 1021.72 1021.83 1021.84 1021.77 1021.67 1021.59 1021.56 1021.62 1021.79 1022.04 1022.37 1022.72 1023.07 1023.39 1023.64
1006.85 1006.88 1006.78 1006.58 1006.33 1006.14 1006.11 1006.33 1006.86 1007.73 1008.91 1010.33 1011.90 1013.48 1014.98 1016.29 1017.35 1018.15 1018.70 1019.06 1019.28 1019.46 1019.65 1019.89 1020.19 1020.56 1020.95 1021.33 1021.65 1021.88 1022.00 1022.03 1021.99 1021.90 1021.83 1021.81 1021.87 1022.02 1022.26 1022.56 1022.90 1023.23 1023.54 1023.79
1006.03 1006.11 1006.14 1006.11 1006.08 1006.11 1006.26 1006.63 1007.24 1008.13 1009.27 1010.62 1012.08 1013.56 1014.96 1016.21 1017.25 1018.05 1018.64 1019.05 1019.34 1019.57 1019.80 1020.07 1020.38 1020.74 1021.12 1021.49 1021.79 1022.02 1022.16 1022.20 1022.18 1022.13 1022.08 1022.08 1022.14 1022.29 1022.51 1022.80 1023.12 1023.44 1023.73 1023.97
1005.22 1005.35 1005.50 1005.66 1005.85 1006.10 1006.46 1006.99 1007.70 1008.62 1009.74 1011.01 1012.36 1013.73 1015.02 1016.18 1017.17 1017.96 1018.57 1019.02 1019.35 1019.64 1019.91 1020.20 1020.53 1020.88 1021.25 1021.59 1021.89 1022.11 1022.26 1022.33 1022.34 1022.33 1022.31 1022.34 1022.43 1022.58 1022.81 1023.09 1023.40 1023.70 1023.99 1024.22
1004.53 1004.71 1004.98 1005.33 1005.73 1006.20 1006.76 1007.44 1008.25 1009.21 1010.30 1011.48 1012.73 1013.97 1015.15 1016.21 1017.13 1017.89 1018.50 1018.97 1019.34 1019.67 1019.97 1020.29 1020.62 1020.96 1021.31 1021.64 1021.93 1022.15 1022.31 1022.41 1022.46 1022.49 1022.53 1022.60 1022.72 1022.90 1023.14 1023.43 1023.73 1024.04 1024.31 1024.54
1004.06 1004.31 1004.71 1005.21 1005.80 1006.46 1007.19 1008.00 1008.89 1009.86 1010.91 1012.02 1013.15 1014.27 1015.32 1016.28 1017.13 1017.84 1018.43 1018.91 1019.31 1019.67 1020.00 1020.33 1020.66 1021.00 1021.34 1021.65 1021.93 1022.16 1022.33 1022.46 1022.55 1022.63 1022.71 1022.83 1023.00 1023.22 1023.48 1023.78 1024.09 1024.39 1024.66 1024.88
1003.86 1004.20 1004.72 1005.37 1006.11 1006.91 1007.77 1008.66 1009.59 1010.56 1011.56 1012.58 1013.59 1014.58 1015.51 1016.37 1017.14 1017.81 1018.38 1018.86 1019.28 1019.66 1020.01 1020.35 1020.69 1021.02 1021.35 1021.65 1021.92 1022.15 1022.34 1022.49 1022.62 1022.74 1022.88 1023.04 1023.24 1023.49 1023.78 1024.09 1024.41 1024.71 1024.97 1025.18
1003.91 1004.36 1005.00 1005.76 1006.61 1007.51 1008.44 1009.37 1010.30 1011.23 1012.16 1013.09 1013.99 1014.86 1015.69 1016.46 1017.16 1017.78 1018.34 1018.82 1019.26 1019.65 1020.02 1020.38 1020.72 1021.05 1021.37 1021.66 1021.93 1022.16 1022.35 1022.52 1022.67 1022.83 1022.99 1023.18 1023.41 1023.68 1023.98 1024.29 1024.61 1024.91 1025.16 1025.35
1004.14 1004.71 1005.45 1006.31 1007.23 1008.18 1009.13 1010.06 1010.96 1011.83 1012.68 1013.51 1014.31 1015.09 1015.83 1016.52 1017.17 1017.77 1018.31 1018.80 1019.25 1019.66 1020.05 1020.41 1020.76 1021.09 1021.40 1021.68 1021.94 1022.16 1022.36 1022.54 1022.70 1022.86 1023.04 1023.24 1023.48 1023.74 1024.03 1024.34 1024.64 1024.93 1025.17 1025.35
1004.45 1005.15 1005.98 1006.91 1007.87 1008.83 1009.76 1010.65 1011.49 1012.30 1013.06 1013.81 1014.53 1015.23 1015.91 1016.56 1017.18 1017.76 1018.31 1018.81 1019.27 1019.70 1020.10 1020.47 1020.81 1021.13 1021.43 1021.70 1021.94 1022.16 1022.34 1022.51 1022.67 1022.83 1023.00 1023.19 1023.41 1023.66 1023.92 1024.21 1024.49 1024.75 1024.97 1025.14
1004.74 1005.56 1006.48 1007.45 1008.42 1009.36 1010.25 1011.09 1011.87 1012.60 1013.30 1013.98 1014.64 1015.30 1015.95 1016.58 1017.19 1017.78 1018.34 1018.85 1019.33 1019.76 1020.16 1020.53 1020.86 1021.17 1021.45 1021.70 1021.92 1022.11 1022.28 1022.43 1022.57 1022.71 1022.86 1023.03 1023.22 1023.43 1023.66 1023.91 1024.17 1024.40 1024.61 1024.77
1004.95 1005.88 1006.86 1007.86 1008.83 1009.74 1010.59 1011.36 1012.08 1012.76 1013.40 1014.04 1014.68 1015.32 1015.97 1016.61 1017.23 1017.84 1018.41 1018.94 1019.42 1019.85 1020.24 1020.59 1020.91 1021.18 1021.43 1021.65 1021.84 1022.01 1022.15 1022.28 1022.39 1022.51 1022.63 1022.77 1022.92 1023.10 1023.30 1023.52 1023.74 1023.96 1024.15 1024.31
1005.06 1006.08 1007.13 1008.14 1009.10 1009.98 1010.77 1011.50 1012.16 1012.80 1013.42 1014.04 1014.68 1015.33 1015.99 1016.66 1017.31 1017.94 1018.53 1019.07 1019.55 1019.97 1020.34 1020.66 1020.93 1021.17 1021.38 1021.55 1021.71 1021.84 1021.96 1022.06 1022.15 1022.25 1022.34 1022.45 1022.58 1022.73 1022.90 1023.10 1023.30 1023.50 1023.69 1023.85
1005.11 1006.22 1007.30 1008.33 1009.26 1010.10 1010.86 1011.54 1012.17 1012.78 1013.39 1014.02 1014.68 1015.36 1016.06 1016.76 1017.45 1018.10 1018.70 1019.24 1019.71 1020.11 1020.44 1020.72 1020.94 1021.13 1021.28 1021.41 1021.53 1021.63 1021.72 1021.80 1021.87 1021.95 1022.04 1022.14 1022.25 1022.38 1022.54 1022.72 1022.90 1023.10 1023.30 1023.48
1005.20 1006.36 1007.47 1008.49 1009.40 1010.21 1010.92 1011.56 1012.17 1012.77 1013.38 1014.02 1014.70 1015.42 1016.15 1016.89 1017.61 1018.28 1018.89 1019.43 1019.88 1020.25 1020.54 1020.76 1020.93 1021.06 1021.17 1021.25 1021.32 1021.39 1021.46 1021.52 1021.59 1021.67 1021.75 1021.85 1021.96 1022.10 1022.25 1022.42 1022.62 1022.81 1023.02 1023.21
1005.37 1006.57 1007.69 1008.69 1009.57 1010.34 1011.01 1011.62 1012.20 1012.79 1013.40 1014.05 1014.75 1015.50 1016.26 1017.02 1017.76 1018.45 1019.06 1019.59 1020.02 1020.35 1020.60 1020.78 1020.90 1020.98 1021.03 1021.07 1021.11 1021.16 1021.21 1021.26 1021.34 1021.42 1021.51 1021.62 1021.75 1021.89 1022.05 1022.23 1022.43 1022.63 1022.84 1023.05
1005.69 1006.89 1007.99 1008.97 1009.81 1010.54 1011.16 1011.73 1012.28 1012.84 1013.44 1014.09 1014.80 1015.55 1016.33 1017.11 1017.86 1018.54 1019.15 1019.67 1020.08 1020.38 1020.60 1020.74 1020.82 1020.87 1020.88 1020.90 1020.91 1020.94 1020.98 1021.04 1021.11 1021.21 1021.32 1021.44 1021.59 1021.74 1021.92 1022.11 1022.31 1022.52 1022.73 1022.95
1006.12 1007.31 1008.38 1009.31 1010.11 1010.78 1011.35 1011.88 1012.38 1012.91 1013.48 1014.12 1014.81 1015.55 1016.32 1017.09 1017.83 1018.52 1019.12 1019.62 1020.02 1020.31 1020.51 1020.63 1020.69 1020.72 1020.72 1020.71 1020.72 1020.74 1020.78 1020.84 1020.92 1021.03 1021.15 1021.29 1021.45 1021.62 1021.81 1022.01 1022.21 1022.42 1022.63 1022.84
1006.59 1007.75 1008.78 1009.66 1010.39 1011.01 1011.53 1012.01 1012.47 1012.95 1013.48 1014.08 1014.74 1015.45 1016.19 1016.94 1017.66 1018.33 1018.92 1019.42 1019.81 1020.10 1020.30 1020.42 1020.48 1020.51 1020.51 1020.51 1020.51 1020.53 1020.58 1020.65 1020.74 1020.85 1020.98 1021.14 1021.30 1021.48 1021.67 1021.87 1022.07 1022.27 1022.48 1022.68
1007.00 1008.11 1009.08 1009.91 1010.60 1011.16 1011.64 1012.07 1012.48 1012.92 1013.41 1013.95 1014.57 1015.23 1015.93 1016.64 1017.33 1017.98 1018.55 1019.04 1019.44 1019.74 1019.96 1020.10 1020.18 1020.23 1020.25 1020.26 1020.28 1020.31 1020.37 1020.44 1020.54 1020.65 1020.79 1020.94 1021.11 1021.29 1021.48 1021.67 1021.86 1022.05 1022.24 1022.43
1007.24 1008.28 1009.21 1009.99 1010.63 1011.16 1011.61 1012.00 1012.39 1012.79 1013.23 1013.73 1014.29 1014.90 1015.55 1016.21 1016.86 1017.47 1018.03 1018.52 1018.92 1019.24 1019.49 1019.66 1019.78 1019.86 1019.92 1019.96 1020.00 1020.05 1020.11 1020.20 1020.30 1020.41 1020.54 1020.69 1020.85 1021.02 1021.20 1021.38 1021.57 1021.75 1021.93 1022.10
1007.20 1008.19 1009.06 1009.81 1010.44 1010.96 1011.40 1011.78 1012.16 1012.54 1012.95 1013.42 1013.93 1014.49 1015.08 1015.69 1016.29 1016.87 1017.40 1017.88 1018.29 1018.63 1018.90 1019.12 1019.28 1019.41 1019.50 1019.58 1019.65 1019.73 1019.80 1019.89 1019.99 1020.11 1020.23 1020.37 1020.53 1020.69 1020.85 1021.02 1021.20 1021.38 1021.55 1021.72
Thickness
5692 5694 5694 5696 5701 5703 5695 5689 5676 5669 5660 5648 5639 5627 5616 5607 5599 5592 5586 5581 5577 5573 5570 5567 5564 5562 5560 5559 5559 5558 5558 5556 5554 5553 5553 5553 5553 5553 5553 5553 5552 5552 5552 5552
5689 5699 5701 5700 5705 5703 5696 5691 5682 5672 5658 5653 5640 5626 5612 5602 5595 5588 5581 5575 5571 5566 5563 5560 5557 5555 5553 5551 5550 5550 5550 5548 5547 5546 5545 5544 5544 5543 5542 5542 5542 5542 5541 5540
5675 5691 5695 5685 5695 5695 5692 5691 5683 5666 5654 5646 5631 5619 5609 5600 5592 5584 5577 5570 5565 5561 5557 5554 5551 5549 5546 5544 5543 5542 5542 5541 5540 5539 5538 5538 5536 5534 5533 5532 5532 5531 5530 5529
5673 5674 5659 5680 5701 5699 5688 5681 5678 5666 5652 5642 5628 5616 5606 5598 5589 5580 5571 5565 5559 5554 5550 5547 5544 5542 5540 5539 5537 5536 5535 5534 5533 5532 5531 5529 5527 5526 5525 5524 5523 5522 5522 5520
5670 5662 5663 5673 5690 5693 5680 5667 5670 5659 5646 5634 5621 5607 5594 5589 5583 5574 5566 5559 5553 5548 5544 5540 5538 5536 5535 5534 5532 5531 5530 5529 5527 5526 5524 5522 5520 5519 5518 5517 5517 5515 5515 5513
5670 5659 5652 5664 5690 5699 5684 5656 5661 5653 5640 5628 5619 5605 5590 5582 5575 5566 5559 5552 5546 5542 5538 5535 5532 5531 5530 5528 5526 5524 5523 5522 5520 5519 5518 5516 5514 5513 5512 5512 5511 5510 5508 5506
5672 5663 5658 5676 5692 5693 5662 5648 5657 5650 5638 5628 5621 5612 5595 5580 5569 5561 5553 5547 5542 5537 5533 5530 5528 5526 5524 5522 5520 5519 5518 5516 5515 5513 5512 5510 5509 5508 5507 5506 5506 5504 5502 5500
5673 5660 5654 5682 5689 5672 5660 5664 5657 5646 5635 5623 5612 5601 5587 5575 5564 5555 5548 5542 5538 5533 5528 5526 5523 5521 5518 5516 5515 5514 5513 5511 5510 5508 5508 5506 5504 5503 5502 5501 5500 5499 5497 5495
5670 5666 5674 5680 5676 5674 5671 5660 5650 5640 5628 5617 5603 5591 5580 5569 5559 5551 5544 5539 5533 5529 5524 5521 5519 5516 5513 5511 5511 5509 5507 5505 5504 5503 5502 5501 5500 5499 5498 5497 5497 5496 5493 5491
5679 5673 5676 5676 5674 5671 5665 5655 5646 5635 5623 5611 5598 5586 5574 5564 5555 5547 5540 5535 5530 5526 5522 5518 5515 5513 5510 5508 5506 5504 5502 5500 5499 5498 5497 5496 5496 5495 5494 5493 5492 5492 5490 5487
5677 5674 5673 5670 5668 5663 5656 5648 5638 5628 5618 5606 5594 5582 5572 5562 5553 5545 5538 5533 5528 5525 5520 5516 5513 5511 5508 5505 5503 5501 5499 5498 5497 5495 5494 5492 5490 5486 5486 5482 5482 5483 5483 5482
5680 5680 5676 5664 5663 5658 5649 5640 5632 5621 5610 5600 5591 5580 5569 5560 5551 5544 5537 5532 5528 5524 5520 5516 5513 5509 5507 5504 5502 5500 5497 5497 5496 5494 5492 5490 5487 5483 5478 5478 5476 5476 5475 5474
5691 5689 5678 5669 5662 5654 5645 5636 5627 5617 5607 5596 5586 5578 5568 5559 5551 5544 5538 5533 5529 5525 5520 5516 5513 5509 5507 5505 5502 5500 5498 5497 5496 5495 5493 5491 5488 5485 5481 5476 5474 5473 5472 5471
5690 5681 5668 5662 5656 5649 5641 5633 5623 5613 5603 5594 5585 5576 5567 5559 5551 5545 5539 5534 5530 5526 5521 5517 5513 5510 5507 5505 5503 5501 5500 5497 5497 5496 5495 5493 5491 5489 5486 5483 5479 5476 5472 5471
5682 5678 5668 5661 5653 5644 5637 5628 5617 5608 5599 5591 5583 5575 5567 5559 5552 5546 5541 5536 5531 5527 5523 5519 5515 5512 5509 5507 5504 5503 5502 5500 5499 5498 5497 5496 5495 5493 5490 5488 5486 5483 5479 5474
5678 5672 5664 5656 5648 5640 5633 5625 5616 5607 5599 5591 5583 5576 5569 5562 5555 5548 5543 5538 5533 5528 5525 5521 5517 5514 5512 5509 5507 5505 5503 5500 5499 5500 5500 5499 5497 5496 5494 5491 5489 5487 5484 5481
5672 5664 5659 5652 5645 5639 5633 5626 5617 5609 5601 5593 5586 5579 5571 5564 5557 5550 5545 5541 5536 5532 5528 5524 5520 5518 5515 5513 5511 5510 5508 5505 5501 5502 5504 5502 5501 5499 5497 5495 5493 5491 5488 5484
5677 5671 5664 5656 5649 5641 5634 5627 5619 5611 5603 5596 5589 5581 5574 5567 5560 5554 5549 5544 5539 5535 5531 5528 5524 5522 5519 5517 5515 5515 5514 5512 5510 5509 5507 5505 5504 5503 5501 5499 5498 5496 5492 5488
5678 5671 5664 5657 5651 5644 5637 5629 5621 5614 5607 5600 5592 5584 5578 5572 5565 5559 5553 5548 5543 5538 5535 5532 5527 5526 5523 5521 5519 5519 5520 5519 5516 5514 5511 5506 5506 5507 5506 5504 5503 5501 5499 5497
5677 5671 5664 5658 5653 5646 5638 5631 5624 5617 5610 5603 5595 5588 5581 5575 5569 5564 5558 5553 5549 5546 5541 5536 5532 5531 5529 5527 5523 5526 5526 5525 5523 5520 5517 5515 5514 5512 5510 5509 5507 5505 5503 5501
5676 5671 5665 5659 5652 5646 5640 5633 5626 5618 5612 5606 5598 5592 5586 5580 5574 5569 5563 5559 5556 5552 5546 5540 5538 5537 5535 5533 5528 5531 5533 5531 5529 5527 5525 5522 5520 5518 5516 5514 5512 5510 5508 5505
5676 5670 5665 5659 5653 5646 5641 5635 5628 5622 5615 5609 5603 5597 5590 5584 5579 5574 5570 5568 5562 5556 5552 5548 5546 5544 5542 5538 5538 5539 5539 5537 5536 5534 5531 5528 5525 5523 5521 5519 5517 5515 5513 5510
5676 5670 5665 5659 5653 5647 5641 5636 5630 5624 5618 5612 5607 5601 5595 5590 5586 5581 5576 5574 5568 5561 5559 5558 5553 5548 5545 5543 5544 5546 5546 5543 5542 5540 5537 5533 5531 5529 5527 5524 5522 5520 5517 5515
5674 5669 5664 5659 5654 5647 5640 5636 5632 5627 5621 5617 5612 5606 5601 5596 5592 5590 5587 5580 5574 5566 5565 5561 5556 5553 5548 5549 5550 5551 5551 5549 5547 5546 5544 5540 5537 5535 5532 5529 5527 5524 5522 5519
5673 5668 5663 5658 5652 5648 5643 5639 5633 5628 5624 5621 5616 5611 5607 5604 5600 5597 5594 5586 5578 5572 5569 5562 5560 5556 5555 5555 5556 5557 5557 5556 5554 5552 5549 5546 5543 5541 5537 5535 5532 5529 5527 5524
5670 5667 5663 5659 5656 5652 5648 5643 5638 5633 5630 5626 5622 5617 5614 5611 5607 5604 5598 5592 5585 5578 5577 5571 5566 5562 5562 5562 5562 5563 5562 5559 5557 5554 5552 5550 5548 5546 5543 5540 5536 5534 5531 5529
5668 5666 5661 5659 5657 5656 5653 5649 5644 5640 5638 5633 5629 5624 5621 5617 5613 5609 5605 5599 5593 5586 5584 5582 5577 5572 5570 5569 5569 5568 5567 5565 5562 5559 5557 5554 5551 5549 5547 5544 5541 5538 5535 5533